Location: PSU-Greenbush Astrophysical Observatory
(37.5140°N, 94.9880°W)
Time: 16:28:58
(UTC-05:00)

BEESAT - Pass Details

Date: 24 February 2020
Orbit: 700 x 708 km, 98.6° (Epoch: 09 April)

Event Time Altitude Azimuth Distance (km) Brightness Sun altitude
Rises 06:04:33 0° 193° (SSW) 3,084 ? -11.5°
Reaches altitude 10° 06:07:05 10° 206° (SSW) 2,169 ? -11.0°
Maximum altitude 06:11:07 27° 263° (W) 1,339 ? -10.2°
Drops below altitude 10° 06:15:09 10° 322° (NW) 2,178 ? -9.4°
Sets 06:17:43 0° 334° (NNW) 3,100 ? -8.9°
